Weather in Stezhki

Russia / Tambov Oblast     53°04′57″N   41°12′55″E
temp.,
°C
wind,
m/s
gust,
m/s
humid.,
%
clouds,
%
prec.,
mm/h
press.,
hPa
HPBL,
m
30 june, thu
thu3000:00+12ne22720 0.0 101914
03:00+11nnw22740 0.0 101910
06:00+14n237138 0.0 101886
09:00+19nnw235787 0.0 1017643
12:00+21nw34475 0.0 10161922
15:00+22nnw564598 0.0 10152192
18:00+21nw46560 0.0 10141376
21:00+16wnw410785 0.0 1014188
1 july, fri
fri100:00+15nw411795 0.0 1013241
03:00+12nnw410760 0.0 1013191
06:00+12nne511775 0.0 1014402
09:00+15nne811520 0.0 10161463
12:00+16n9124515 0.0 10161948
15:00+14ne8145889 0.0 10171707
18:00+11nne714756 0.1 1018941
21:00+9n38900 0.1 1019185
2 july, sat
sat200:00+10nnw513831 0.0 1018307
03:00+11n616730 0.0 1018423
06:00+12n5137623 0.0 1018362
09:00+18n711555 0.0 10181178
12:00+21n811460 0.0 10171916
15:00+22n710445 0.0 10162259
18:00+21n59545 0.0 1016932
21:00+16nw3475100 0.0 101653
3 july, sun
sun300:00+17nw357136 0.0 1015104
03:00+14nw478889 0.1 1014116
06:00+16nnw368774 0.3 1014174
09:00+21nnw34657 0.3 1014584
12:00+24n46540 0.3 10141661
15:00+24n4657100 0.4 1013669
18:00+24nne485884 0.0 1013640
21:00+17ene237913 0.0 101523
4 july, mon
mon400:00+15ne238812 0.0 101625
03:00+14nne34925 0.0 101644
06:00+16nne36865 0.0 1017183
09:00+21ne456312 0.0 1017998
12:00+24e45455 0.0 10171865
15:00+25e34399 0.0 10172227
18:00+25ene124570 0.0 10182210
21:00+20n015413 0.0 101811